Regional Weather Roundup
Issued by NWS

Home | Current Version | Previous Version | Graphics & Text | Print | Product List | Glossary On
Versions: 1 2 3 4 5 6 7 8 9 10 11 12 13 14 15 16 17 18 19 20 21 22 23 24 25 26 27 28 29 30 31 32 33 34 35 36 37 38 39 40 41 42 43 44 45 46 47 48 49 50
000
ASUS43 KLOT 182308
RWRIL

ILLINOIS REGIONAL WEATHER ROUNDUP
NATIONAL WEATHER SERVICE CHICAGO/ROMEOVILLE IL
600 PM CDT WED APR 18 2018

NOTE: "FAIR" INDICATES FEW OR NO CLOUDS BELOW 12,000 FEET WITH NO
SIGNIFICANT WEATHER AND/OR OBSTRUCTIONS TO VISIBILITY.

* THESE STATIONS ARE NOT UNDER NWS QUALITY CONTROL. THEY ALSO MAY NOT
  REPORT WEATHER SUCH AS PRECIPITATION OR FOG.

ILZ001-002-007-009-015-016-024-190000-
NORTHWEST ILLINOIS

CITY           SKY/WX    TMP DP  RH WIND       PRES   REMARKS
MOLINE         CLOUDY    34  32  92 N12       29.93R FOG     WCI  25
STERLING*      LGT SNOW  33  32  96 N9        29.90R FOG     WCI  25
SAVANNA*       LGT RAIN  33  32  97 NW9       29.92R WCI  25
$$

ILZ003-004-008-010-011-017-018-190000-
NORTH CENTRAL ILLINOIS

CITY           SKY/WX    TMP DP  RH WIND       PRES   REMARKS
ROCKFORD       LGT SNOW  32  30  92 N12       29.89R FOG     WCI  23
FREEPORT*      DRIZZLE   32  31  99 NW9       29.91R WCI  24
ROCHELLE*      DRIZZLE   32  32  99 N10       29.88R WCI  24
DE KALB*       CLOUDY    32  32  99 N8        29.85R FOG     WCI  25
PERU*          CLOUDY    36  34  94 N8        29.87R FOG     WCI  30
$$

ILZ005-006-012>014-019>023-190000-
NORTHEAST ILLINOIS

CITY           SKY/WX    TMP DP  RH WIND       PRES   REMARKS
CHICAGO-OHARE  DRIZZLE   34  32  92 N12       29.82R FOG     WCI  25
CHICAGO-MIDWAY DRIZZLE   35  33  92 N9        29.83R FOG     WCI  28
AURORA         CLOUDY    33  32  96 N5        29.84R FOG     WCI  29
LANSING*       DRIZZLE   34  34 100 N7        29.82R WCI  28
JOLIET*        CLOUDY    35  34  96 N6        29.84R FOG     WCI  30
WAUKEGAN       NOT AVBL
DUPAGE AIRPORT CLOUDY    32  32 100 N5        29.83R FOG     WCI  27
KANKAKEE*      CLOUDY    36  33  90 NW9       29.83R WCI  29
WHEELING       CLOUDY    34  32  92 N9        29.84R FOG     WCI  27
MORRIS*        CLOUDY    34  32  93 NW5       29.84R FOG     WCI  30
ROMEOVILLE*    CLOUDY    33  32  96 N6        29.83R FOG     WCI  27
NORTHERLY ISL    N/A     33  31  92 NW12        N/A  WCI  24
$$

LMZ740>746-190000-
SOUTHERN LAKE MICHIGAN

STATION/POSITION SKY/WX   TEMP    WIND        PRES    VSBY  WAVE
                          AIR SEA DIR/SP/G                  HT/PER
                          (F)     (DEG/KT/KT) (MB)    (MI)  (FT/S)
HARRISON CRIB              34      10/ 18/ 19   N/A
BURNHAM HARBOR             33      10/  9/ 14   N/A
CALUMET HARBOR             33     350/ 14/ 18 1009.2R
BURNS HARBOR               35      10/ 16/ 19 1009.5R
MICHIGAN CITY              34     360/ 20/ 21   N/A
$$

ILZ025>027-034>036-040-047-049-050-058-095>099-190000-
WEST-CENTRAL ILLINOIS

CITY           SKY/WX    TMP DP  RH WIND       PRES   REMARKS
QUINCY         CLOUDY    39  28  64 NW24G32   29.96R WCI  28
GALESBURG*     CLOUDY    37  37 100 W15       29.92R WCI  28
MACOMB*        CLOUDY    37  30  77 W20       29.95R WCI  26
JACKSONVILLE*  CLOUDY    40  29  65 W21G36    29.94R
PITTSFIELD*    CLOUDY    41  30  65 NW15G25   29.97R
$$

ILZ028>032-037-038-041>044-048-051>054-059>061-190000-
CENTRAL ILLINOIS

CITY           SKY/WX    TMP DP  RH WIND       PRES   REMARKS
PONTIAC        CLOUDY    35  35  99 NW9       29.86R FOG     WCI  28
BLOOMINGTON    CLOUDY    39  31  72 W25       29.85R WCI  28
DECATUR        CLOUDY    44  32  62 W25G33    29.87R
PEORIA         CLOUDY    38  31  76 W14G23    29.89R WCI  30
LACON*         DRIZZLE   35  34  99 NW6       29.87R WCI  30
LINCOLN*       CLOUDY    41  32  69 W14G24    29.89R
SPRINGFIELD    CLOUDY    43  31  62 W25G33    29.91R
TAYLORVILLE    CLOUDY    45  33  62 W24G35    29.89R
$$

ILZ033-039-045-046-055>057-062-063-190000-
EAST-CENTRAL ILLINOIS

CITY           SKY/WX    TMP DP  RH WIND       PRES   REMARKS
CHAMPAIGN      CLOUDY    45  35  68 W25G35    29.82R
DANVILLE*      CLOUDY    45  37  73 W20G28    29.78R
RANTOUL*       CLOUDY    45  37  74 W20       29.82R
MATTOON        FAIR      49  36  61 W26G36    29.83R
PARIS*         FAIR      48  36  63 W32G41    29.82R
$$

ILZ079-100>102-190000-
SOUTHWEST ILLINOIS

CITY           SKY/WX    TMP DP  RH WIND       PRES   REMARKS
ALTON          PTSUNNY   50  37  62 W20G33    29.91R
BELLEVILLE     CLOUDY    53  37  54 NW21G35   29.89R
CAHOKIA*       CLOUDY    52  34  50 W21G35    29.92R
SPARTA*        SUNNY     58  41  54 NW23G35   29.88R
$$

ILZ064>066-069>071-074>076-080>082-084>086-088>090-092>094-190000-
SOUTH-CENTRAL ILLINOIS

CITY           SKY/WX    TMP DP  RH WIND       PRES   REMARKS
CARBONDALE     FAIR      67  40  37 NW17G30   29.81R
CAIRO*         FAIR      73  39  30 W20G29    29.81R
EFFINGHAM*     FAIR      51  39  63 W25G36    29.86R
MARION         SUNNY     68  37  32 NW17G25   29.81R
MT. VERNON     FAIR      60  41  49 NW12G21   29.83R
CENTRALIA*     SUNNY     57  41  55 NW25G38   29.85R
SALEM*         FAIR      58  39  49 NW25G37   29.84R
METROPOLIS*    FAIR      74  35  23 W15G24    29.79R
$$

ILZ067-068-072-073-078-083-087-091-190000-
SOUTHEAST ILLINOIS

CITY           SKY/WX    TMP DP  RH WIND       PRES   REMARKS
LAWRENCEVILLE  FAIR      58  42  55 NW31G37   29.78R
FLORA*         FAIR      59  43  54 NW20G30   29.82R
FAIRFIELD*     FAIR      61  43  51 NW10      29.79R
HARRISBURG*    FAIR      69  43  39 NW29G36   29.78R
ROBINSON*      FAIR      54  40  57 NW25G35   29.80R
CARMI*         FAIR      66  47  49 NW29G35   29.76R
$$

ABBREVIATIONS USED IN REMARKS
   TC - TEMPERATURE IN CELSIUS
  WCI - WIND CHILL INDEX
   HX - HEAT INDEX
  VSB - VISIBILITY
$$





USA.gov is the U.S. government's official web portal to all federal, state and local government web resources and services.